Time,TemperatureF,DewpointF,PressureIn,WindDirection,WindDirectionDegrees,WindSpeedMPH,WindSpeedGustMPH,Humidity,HourlyPrecipIn,Conditions,Clouds,dailyrainin,SoftwareType,DateUTC
2013-06-18 00:12:00,73.0,72.0,-100.00,SSW,204,1.0,2.0,95,-99.99,,,-99.99,,2013-06-18 04:12:00,
2013-06-18 00:23:00,73.0,72.0,-100.00,SSW,204,1.0,2.0,95,-99.99,,,-99.99,,2013-06-18 04:23:00,
2013-06-18 00:34:00,73.0,72.0,-100.00,SE,135,1.0,2.0,96,-99.99,,,-99.99,,2013-06-18 04:34:00,
2013-06-18 00:43:00,73.0,72.0,-100.00,SE,135,1.0,2.0,96,-99.99,,,-99.99,,2013-06-18 04:43:00,
2013-06-18 00:54:00,73.0,72.0,-100.00,SE,135,1.0,2.0,96,-99.99,,,-99.99,,2013-06-18 04:54:00,
2013-06-18 01:02:00,73.0,72.0,-100.00,South,189,1.0,3.0,96,-99.99,,,-99.99,,2013-06-18 05:02:00,
2013-06-18 01:12:00,73.0,72.0,-100.00,South,189,1.0,3.0,96,-99.99,,,-99.99,,2013-06-18 05:12:00,
2013-06-18 01:43:00,72.0,71.0,-100.00,East,99,1.0,1.0,97,-99.99,,,-99.99,,2013-06-18 05:43:00,
2013-06-18 01:53:00,72.0,71.0,-100.00,NE,47,1.0,2.0,97,-99.99,,,-99.99,,2013-06-18 05:53:00,
2013-06-18 02:02:00,72.0,71.0,-100.00,NE,47,1.0,2.0,97,-99.99,,,-99.99,,2013-06-18 06:02:00,
2013-06-18 02:11:00,72.0,71.0,-100.00,NE,47,1.0,2.0,97,-99.99,,,-99.99,,2013-06-18 06:11:00,
2013-06-18 02:23:00,72.0,71.0,-100.00,NE,47,1.0,2.0,97,-99.99,,,-99.99,,2013-06-18 06:23:00,
2013-06-18 02:32:00,71.0,70.0,-100.00,NE,43,2.0,3.0,97,-99.99,,,-99.99,,2013-06-18 06:32:00,
2013-06-18 02:43:00,71.0,70.0,-100.00,ENE,75,2.0,3.0,97,-99.99,,,-99.99,,2013-06-18 06:43:00,
2013-06-18 02:53:00,71.0,70.0,-100.00,ENE,75,2.0,3.0,97,-99.99,,,-99.99,,2013-06-18 06:53:00,
2013-06-18 03:02:00,71.0,70.0,-100.00,NNE,32,1.0,3.0,97,-99.99,,,-99.99,,2013-06-18 07:02:00,
2013-06-18 03:12:00,71.0,70.0,-100.00,NNE,32,1.0,3.0,97,-99.99,,,-99.99,,2013-06-18 07:12:00,
2013-06-18 03:22:00,71.0,70.0,-100.00,NNE,32,1.0,3.0,97,-99.99,,,-99.99,,2013-06-18 07:22:00,
2013-06-18 03:33:00,70.0,69.0,-100.00,SW,232,1.0,1.0,97,-99.99,,,-99.99,,2013-06-18 07:33:00,
2013-06-18 03:43:00,70.0,69.0,-100.00,SW,232,1.0,1.0,97,-99.99,,,-99.99,,2013-06-18 07:43:00,
2013-06-18 03:53:00,70.0,69.0,-100.00,SW,232,1.0,1.0,97,-99.99,,,-99.99,,2013-06-18 07:53:00,
2013-06-18 04:02:00,70.0,69.0,-100.00,SE,141,0.0,1.0,97,-99.99,,,-99.99,,2013-06-18 08:02:00,
2013-06-18 04:11:00,70.0,69.0,-100.00,SE,141,0.0,1.0,97,-99.99,,,-99.99,,2013-06-18 08:11:00,
2013-06-18 04:23:00,70.0,69.0,-100.00,SE,141,0.0,-999.0,97,-99.99,,,-99.99,,2013-06-18 08:23:00,
2013-06-18 04:33:00,69.0,69.0,-100.00,SSE,161,2.0,3.0,98,-99.99,,,-99.99,,2013-06-18 08:33:00,
2013-06-18 04:43:00,69.0,69.0,-100.00,SSE,161,2.0,3.0,98,-99.99,,,-99.99,,2013-06-18 08:43:00,
2013-06-18 04:52:00,69.0,69.0,-100.00,SSE,161,2.0,3.0,98,-99.99,,,-99.99,,2013-06-18 08:52:00,
2013-06-18 05:00:00,69.0,69.0,-100.00,SSW,204,1.0,2.0,98,-99.99,,,-99.99,,2013-06-18 09:00:00,
2013-06-18 05:02:00,69.0,68.0,-100.00,SSW,200,1.0,1.0,98,-99.99,,,-99.99,,2013-06-18 09:02:00,
2013-06-18 05:12:00,69.0,68.0,-100.00,SSW,200,1.0,1.0,98,-99.99,,,-99.99,,2013-06-18 09:12:00,
2013-06-18 05:22:00,69.0,68.0,-100.00,SSW,200,1.0,1.0,98,-99.99,,,-99.99,,2013-06-18 09:22:00,
2013-06-18 05:34:00,69.0,68.0,-100.00,West,277,1.0,2.0,98,-99.99,,,-99.99,,2013-06-18 09:34:00,
2013-06-18 05:43:00,69.0,69.0,-100.00,SSW,204,1.0,2.0,98,-99.99,,,-99.99,,2013-06-18 09:43:00,
2013-06-18 05:53:00,69.0,69.0,-100.00,SSW,204,1.0,2.0,98,-99.99,,,-99.99,,2013-06-18 09:53:00,
2013-06-18 06:00:00,68.0,68.0,-100.00,SSE,167,0.0,1.0,98,-99.99,,,-99.99,,2013-06-18 10:00:00,
2013-06-18 06:11:00,68.0,68.0,-100.00,ENE,66,1.0,2.0,98,-99.99,,,-99.99,,2013-06-18 10:11:00,
2013-06-18 06:22:00,68.0,68.0,-100.00,ENE,66,1.0,2.0,98,-99.99,,,-99.99,,2013-06-18 10:22:00,
2013-06-18 06:33:00,68.0,68.0,-100.00,ENE,66,1.0,2.0,98,-99.99,,,-99.99,,2013-06-18 10:33:00,
2013-06-18 06:43:00,68.0,68.0,-100.00,SSE,167,0.0,1.0,98,-99.99,,,-99.99,,2013-06-18 10:43:00,
2013-06-18 06:53:00,68.0,68.0,-100.00,SSE,167,0.0,1.0,98,-99.99,,,-99.99,,2013-06-18 10:53:00,
2013-06-18 07:11:00,68.0,67.0,-100.00,SE,143,0.0,1.0,98,-99.99,,,-99.99,,2013-06-18 11:11:00,
2013-06-18 07:22:00,68.0,67.0,-100.00,ESE,112,1.0,2.0,98,-99.99,,,-99.99,,2013-06-18 11:22:00,
2013-06-18 07:32:00,68.0,67.0,-100.00,ESE,112,1.0,2.0,98,-99.99,,,-99.99,,2013-06-18 11:32:00,
2013-06-18 07:43:00,68.0,67.0,-100.00,SSW,200,1.0,1.0,98,-99.99,,,-99.99,,2013-06-18 11:43:00,
2013-06-18 07:52:00,68.0,67.0,-100.00,SSW,200,1.0,1.0,98,-99.99,,,-99.99,,2013-06-18 11:52:00,
2013-06-18 08:01:00,68.0,68.0,-100.00,SE,137,0.0,1.0,98,-99.99,,,-99.99,,2013-06-18 12:01:00,
2013-06-18 08:11:00,73.0,73.0,-100.00,West,277,1.0,2.0,98,-99.99,,,-99.99,,2013-06-18 12:11:00,
2013-06-18 08:22:00,73.0,73.0,-100.00,West,277,1.0,2.0,98,-99.99,,,-99.99,,2013-06-18 12:22:00,
2013-06-18 08:33:00,76.0,75.0,-100.00,ESE,119,1.0,2.0,98,-99.99,,,-99.99,,2013-06-18 12:33:00,
2013-06-18 08:43:00,77.0,76.0,-100.00,East,87,1.0,3.0,97,-99.99,,,-99.99,,2013-06-18 12:43:00,
2013-06-18 08:52:00,77.0,76.0,-100.00,East,87,1.0,3.0,97,-99.99,,,-99.99,,2013-06-18 12:52:00,
2013-06-18 09:00:00,82.0,77.0,-100.00,ESE,103,3.0,9.0,84,-99.99,,,-99.99,,2013-06-18 13:00:00,
2013-06-18 09:02:00,77.0,76.0,-100.00,East,87,1.0,3.0,97,-99.99,,,-99.99,,2013-06-18 13:02:00,
2013-06-18 09:12:00,77.0,76.0,-100.00,East,87,1.0,3.0,97,-99.99,,,-99.99,,2013-06-18 13:12:00,
2013-06-18 09:43:00,82.0,77.0,-100.00,ESE,103,3.0,9.0,84,-99.99,,,-99.99,,2013-06-18 13:43:00,
2013-06-18 09:53:00,82.0,77.0,-100.00,ESE,103,3.0,9.0,84,-99.99,,,-99.99,,2013-06-18 13:53:00,
2013-06-18 10:11:00,83.0,77.0,-100.00,ESE,109,4.0,7.0,81,-99.99,,,-99.99,,2013-06-18 14:11:00,
2013-06-18 10:22:00,85.0,77.0,-100.00,ESE,112,5.0,9.0,77,-99.99,,,-99.99,,2013-06-18 14:22:00,
2013-06-18 10:33:00,85.0,77.0,-100.00,ESE,123,4.0,9.0,75,-99.99,,,-99.99,,2013-06-18 14:33:00,
2013-06-18 10:43:00,85.0,76.0,-100.00,SE,131,5.0,8.0,73,-99.99,,,-99.99,,2013-06-18 14:43:00,
2013-06-18 10:53:00,85.0,76.0,-100.00,SE,131,5.0,8.0,73,-99.99,,,-99.99,,2013-06-18 14:53:00,
2013-06-18 11:00:00,87.0,76.0,-100.00,SE,146,5.0,10.0,70,-99.99,,,-99.99,,2013-06-18 15:00:00,
2013-06-18 11:02:00,85.0,76.0,-100.00,SE,131,5.0,8.0,73,-99.99,,,-99.99,,2013-06-18 15:02:00,
2013-06-18 11:11:00,86.0,77.0,-100.00,SSE,160,5.0,11.0,72,-99.99,,,-99.99,,2013-06-18 15:11:00,
2013-06-18 11:22:00,86.0,77.0,-100.00,SSE,160,5.0,11.0,72,-99.99,,,-99.99,,2013-06-18 15:22:00,
2013-06-18 11:33:00,86.0,77.0,-100.00,SSE,160,5.0,11.0,72,-99.99,,,-99.99,,2013-06-18 15:33:00,
2013-06-18 11:43:00,87.0,76.0,-100.00,SE,146,5.0,10.0,70,-99.99,,,-99.99,,2013-06-18 15:43:00,
2013-06-18 11:53:00,87.0,76.0,-100.00,SE,146,5.0,10.0,70,-99.99,,,-99.99,,2013-06-18 15:53:00,
2013-06-18 12:11:00,89.0,76.0,-100.00,ESE,107,4.0,8.0,65,-99.99,,,-99.99,,2013-06-18 16:11:00,
2013-06-18 12:23:00,89.0,76.0,-100.00,SSE,148,5.0,10.0,63,-99.99,,,-99.99,,2013-06-18 16:23:00,
2013-06-18 12:33:00,89.0,76.0,-100.00,SSE,148,5.0,10.0,63,-99.99,,,-99.99,,2013-06-18 16:33:00,
2013-06-18 12:43:00,90.0,76.0,-100.00,SSE,156,6.0,10.0,63,-99.99,,,-99.99,,2013-06-18 16:43:00,
2013-06-18 12:53:00,90.0,76.0,-100.00,SSE,156,6.0,10.0,63,-99.99,,,-99.99,,2013-06-18 16:53:00,
2013-06-18 13:02:00,90.0,75.0,-100.00,SSE,164,7.0,13.0,61,-99.99,,,-99.99,,2013-06-18 17:02:00,
2013-06-18 13:12:00,90.0,75.0,-100.00,SE,146,5.0,11.0,60,-99.99,,,-99.99,,2013-06-18 17:12:00,
2013-06-18 13:22:00,90.0,75.0,-100.00,SE,146,5.0,11.0,60,-99.99,,,-99.99,,2013-06-18 17:22:00,
2013-06-18 13:33:00,90.0,75.0,-100.00,SE,146,5.0,11.0,60,-99.99,,,-99.99,,2013-06-18 17:33:00,
2013-06-18 13:43:00,90.0,74.0,-100.00,South,191,4.0,9.0,59,-99.99,,,-99.99,,2013-06-18 17:43:00,
2013-06-18 13:53:00,90.0,74.0,-100.00,South,191,4.0,9.0,59,-99.99,,,-99.99,,2013-06-18 17:53:00,
2013-06-18 14:02:00,90.0,74.0,-100.00,South,187,4.0,9.0,57,-99.99,,,-99.99,,2013-06-18 18:02:00,
2013-06-18 14:12:00,90.0,74.0,-100.00,South,187,4.0,9.0,57,-99.99,,,-99.99,,2013-06-18 18:12:00,
2013-06-18 14:33:00,91.0,75.0,-100.00,SW,218,4.0,10.0,59,-99.99,,,-99.99,,2013-06-18 18:33:00,
2013-06-18 14:42:00,91.0,75.0,-100.00,SW,218,4.0,10.0,59,-99.99,,,-99.99,,2013-06-18 18:42:00,
2013-06-18 14:53:00,91.0,75.0,-100.00,SSW,199,5.0,9.0,60,-99.99,,,-99.99,,2013-06-18 18:53:00,
2013-06-18 15:02:00,91.0,74.0,-100.00,SSE,148,4.0,8.0,57,-99.99,,,-99.99,,2013-06-18 19:02:00,
2013-06-18 15:12:00,91.0,74.0,-100.00,SSE,148,4.0,8.0,57,-99.99,,,-99.99,,2013-06-18 19:12:00,
2013-06-18 15:43:00,91.0,75.0,-100.00,SSW,213,5.0,10.0,58,-99.99,,,-99.99,,2013-06-18 19:43:00,
2013-06-18 15:53:00,92.0,74.0,-100.00,SW,236,5.0,11.0,56,-99.99,,,-99.99,,2013-06-18 19:53:00,
2013-06-18 16:00:00,86.0,73.0,-100.00,South,188,6.0,10.0,65,-99.99,,,-99.99,,2013-06-18 20:00:00,
2013-06-18 16:02:00,92.0,75.0,-100.00,SW,217,7.0,15.0,57,-99.99,,,-99.99,,2013-06-18 20:02:00,
2013-06-18 16:12:00,92.0,75.0,-100.00,SW,217,7.0,15.0,57,-99.99,,,-99.99,,2013-06-18 20:12:00,
2013-06-18 16:23:00,90.0,74.0,-100.00,SSE,168,10.0,19.0,59,-99.99,,,-99.99,,2013-06-18 20:23:00,
2013-06-18 16:33:00,90.0,74.0,-100.00,SSE,168,10.0,19.0,59,-99.99,,,-99.99,,2013-06-18 20:33:00,
2013-06-18 16:43:00,86.0,73.0,-100.00,South,188,6.0,10.0,65,-99.99,,,-99.99,,2013-06-18 20:43:00,
2013-06-18 16:53:00,86.0,73.0,-100.00,South,188,6.0,10.0,65,-99.99,,,-99.99,,2013-06-18 20:53:00,
2013-06-18 17:12:00,85.0,74.0,-100.00,SW,215,5.0,9.0,68,-99.99,,,-99.99,,2013-06-18 21:12:00,
2013-06-18 17:33:00,90.0,77.0,-100.00,South,188,9.0,14.0,64,-99.99,,,-99.99,,2013-06-18 21:33:00,
2013-06-18 17:43:00,90.0,77.0,-100.00,South,188,9.0,14.0,64,-99.99,,,-99.99,,2013-06-18 21:43:00,
2013-06-18 17:52:00,90.0,77.0,-100.00,South,188,9.0,14.0,64,-99.99,,,-99.99,,2013-06-18 21:52:00,
2013-06-18 18:00:00,81.0,72.0,-100.00,West,262,4.0,10.0,74,-99.99,,,-99.99,,2013-06-18 22:00:00,
2013-06-18 18:02:00,85.0,71.0,-100.00,South,186,6.0,14.0,62,-99.99,,,-99.99,,2013-06-18 22:02:00,
2013-06-18 18:11:00,85.0,71.0,-100.00,South,186,6.0,14.0,62,-99.99,,,-99.99,,2013-06-18 22:11:00,
2013-06-18 18:22:00,82.0,72.0,-100.00,SW,227,6.0,12.0,70,-99.99,,,-99.99,,2013-06-18 22:22:00,
2013-06-18 18:34:00,82.0,72.0,-100.00,SW,227,6.0,12.0,70,-99.99,,,-99.99,,2013-06-18 22:34:00,
2013-06-18 18:43:00,81.0,72.0,-100.00,West,262,4.0,10.0,74,-99.99,,,-99.99,,2013-06-18 22:43:00,
2013-06-18 18:53:00,81.0,72.0,-100.00,West,262,4.0,10.0,74,-99.99,,,-99.99,,2013-06-18 22:53:00,
2013-06-18 19:12:00,80.0,73.0,-100.00,West,268,2.0,4.0,78,-99.99,,,-99.99,,2013-06-18 23:12:00,
2013-06-18 19:23:00,80.0,73.0,-100.00,West,268,2.0,4.0,78,-99.99,,,-99.99,,2013-06-18 23:23:00,
2013-06-18 19:37:00,80.0,73.0,-100.00,West,268,2.0,4.0,78,-99.99,,,-99.99,,2013-06-18 23:37:00,
2013-06-18 19:47:00,81.0,73.0,-100.00,SW,222,3.0,6.0,76,-99.99,,,-99.99,,2013-06-18 23:47:00,
2013-06-18 19:53:00,81.0,73.0,-100.00,SW,222,3.0,6.0,76,-99.99,,,-99.99,,2013-06-18 23:53:00,
2013-06-18 20:02:00,82.0,73.0,-100.00,ESE,110,4.0,8.0,75,-99.99,,,-99.99,,2013-06-19 00:02:00,
2013-06-18 20:12:00,82.0,73.0,-100.00,ESE,110,4.0,8.0,75,-99.99,,,-99.99,,2013-06-19 00:12:00,
2013-06-18 20:22:00,82.0,73.0,-100.00,SE,136,6.0,11.0,73,-99.99,,,-99.99,,2013-06-19 00:22:00,
2013-06-18 20:33:00,82.0,73.0,-100.00,SE,136,6.0,11.0,73,-99.99,,,-99.99,,2013-06-19 00:33:00,
2013-06-18 20:43:00,81.0,74.0,-100.00,SSE,152,6.0,11.0,77,-99.99,,,-99.99,,2013-06-19 00:43:00,
2013-06-18 20:53:00,81.0,74.0,-100.00,SSE,152,6.0,11.0,77,-99.99,,,-99.99,,2013-06-19 00:53:00,
2013-06-18 21:01:00,80.0,73.0,-100.00,SSE,164,4.0,8.0,79,-99.99,,,-99.99,,2013-06-19 01:01:00,
2013-06-18 21:11:00,80.0,73.0,-100.00,SSE,164,4.0,8.0,79,-99.99,,,-99.99,,2013-06-19 01:11:00,
2013-06-18 21:22:00,77.0,72.0,-100.00,SSW,192,2.0,5.0,82,-99.99,,,-99.99,,2013-06-19 01:22:00,
2013-06-18 21:32:00,77.0,72.0,-100.00,SSW,192,2.0,5.0,82,-99.99,,,-99.99,,2013-06-19 01:32:00,
2013-06-18 21:43:00,76.0,72.0,-100.00,SW,235,2.0,4.0,86,-99.99,,,-99.99,,2013-06-19 01:43:00,
2013-06-18 21:53:00,76.0,72.0,-100.00,SW,235,2.0,4.0,86,-99.99,,,-99.99,,2013-06-19 01:53:00,
2013-06-18 22:00:00,75.0,72.0,-100.00,SSW,205,2.0,4.0,91,-99.99,,,-99.99,,2013-06-19 02:00:00,
2013-06-18 22:01:00,76.0,72.0,-100.00,SW,235,2.0,4.0,86,-99.99,,,-99.99,,2013-06-19 02:01:00,
2013-06-18 22:11:00,76.0,72.0,-100.00,SW,235,2.0,4.0,86,-99.99,,,-99.99,,2013-06-19 02:11:00,
2013-06-18 22:32:00,75.0,72.0,-100.00,ENE,59,2.0,3.0,90,-99.99,,,-99.99,,2013-06-19 02:32:00,
2013-06-18 22:42:00,75.0,72.0,-100.00,SSW,205,2.0,4.0,91,-99.99,,,-99.99,,2013-06-19 02:42:00,
2013-06-18 22:52:00,75.0,72.0,-100.00,SSW,205,2.0,4.0,91,-99.99,,,-99.99,,2013-06-19 02:52:00,
2013-06-18 23:00:00,75.0,73.0,-100.00,ESE,103,3.0,7.0,94,-99.99,,,-99.99,,2013-06-19 03:00:00,
2013-06-18 23:11:00,74.0,73.0,-100.00,SE,125,1.0,3.0,95,-99.99,,,-99.99,,2013-06-19 03:11:00,
2013-06-18 23:22:00,74.0,73.0,-100.00,SE,125,1.0,3.0,95,-99.99,,,-99.99,,2013-06-19 03:22:00,
2013-06-18 23:33:00,75.0,73.0,-100.00,ESE,103,3.0,7.0,94,-99.99,,,-99.99,,2013-06-19 03:33:00,
2013-06-18 23:42:00,75.0,73.0,-100.00,ESE,103,3.0,7.0,94,-99.99,,,-99.99,,2013-06-19 03:42:00,
2013-06-18 23:52:00,75.0,73.0,-100.00,ESE,103,3.0,7.0,94,-99.99,,,-99.99,,2013-06-19 03:52:00,